Time,TemperatureF,DewpointF,PressureIn,WindDirection,WindDirectionDegrees,WindSpeedMPH,WindSpeedGustMPH,Humidity,HourlyPrecipIn,Conditions,Clouds,dailyrainin,SoftwareType,DateUTC
2013-05-20 08:00:00,58.5,55.6,30.02,ENE,68,0.0,0.0,90,0.00,SCT,,0.00,WeatherDisplay:10.37,2013-05-20 12:00:00,
2013-05-20 08:15:00,59.0,56.1,30.03,ENE,68,0.0,0.0,90,0.00,SCT,,0.00,WeatherDisplay:10.37,2013-05-20 12:15:00,
2013-05-20 08:30:00,59.0,56.1,30.03,ENE,68,1.0,3.0,90,0.00,SCT,,0.00,WeatherDisplay:10.37,2013-05-20 12:30:00,
2013-05-20 08:45:00,59.0,56.1,30.03,ENE,68,0.0,2.0,90,0.00,BKN,,0.00,WeatherDisplay:10.37,2013-05-20 12:45:00,
2013-05-20 09:00:00,59.0,56.1,30.03,ENE,68,0.0,2.0,90,0.00,BKN,,0.00,WeatherDisplay:10.37,2013-05-20 13:00:00,
2013-05-20 09:15:00,59.5,56.6,30.03,ENE,68,0.0,2.0,90,0.00,BKN,,0.00,WeatherDisplay:10.37,2013-05-20 13:15:00,
2013-05-20 09:30:00,60.0,57.1,30.03,ENE,68,0.0,3.0,90,0.00,BKN,,0.00,WeatherDisplay:10.37,2013-05-20 13:30:00,
2013-05-20 09:45:00,60.8,57.8,30.04,ENE,68,0.0,3.0,90,0.00,SCT,,0.00,WeatherDisplay:10.37,2013-05-20 13:45:00,
2013-05-20 10:00:00,61.8,58.8,30.03,ENE,75,0.0,5.0,90,0.00,SCT,,0.00,WeatherDisplay:10.37,2013-05-20 14:00:00,
2013-05-20 10:15:00,62.2,58.9,30.03,ENE,74,1.0,5.0,89,0.00,SCT,,0.00,WeatherDisplay:10.37,2013-05-20 14:15:00,
2013-05-20 10:30:00,63.4,60.1,30.03,ENE,73,0.0,4.0,89,0.00,SCT,,0.00,WeatherDisplay:10.37,2013-05-20 14:30:00,
2013-05-20 10:45:00,65.6,61.6,30.03,ESE,105,0.0,4.0,87,0.00,SCT,,0.00,WeatherDisplay:10.37,2013-05-20 14:45:00,
2013-05-20 11:00:00,68.0,63.3,30.03,ENE,74,2.0,4.0,85,0.00,SCT,,0.00,WeatherDisplay:10.37,2013-05-20 15:00:00,
2013-05-20 11:15:00,69.8,64.4,30.03,ENE,72,1.0,4.0,83,0.00,SCT,,0.00,WeatherDisplay:10.37,2013-05-20 15:15:00,
2013-05-20 11:30:00,71.3,64.9,30.02,ESE,102,0.0,4.0,80,0.00,SCT,,0.00,WeatherDisplay:10.37,2013-05-20 15:30:00,
2013-05-20 11:45:00,72.7,65.1,30.02,East,88,0.0,5.0,77,0.00,CLR,,0.00,WeatherDisplay:10.37,2013-05-20 15:45:00,
2013-05-20 12:00:00,74.1,64.8,30.01,ENE,78,1.0,4.0,73,0.00,CLR,,0.00,WeatherDisplay:10.37,2013-05-20 16:00:00,
2013-05-20 12:15:00,75.4,65.7,30.01,ENE,65,2.0,6.0,72,0.00,CLR,,0.00,WeatherDisplay:10.37,2013-05-20 16:15:00,
2013-05-20 12:30:00,76.3,64.9,30.00,ENE,59,3.0,7.0,68,0.00,CLR,,0.00,WeatherDisplay:10.37,2013-05-20 16:30:00,
2013-05-20 12:45:00,77.3,65.5,30.00,ENE,76,3.0,6.0,67,0.00,BKN,,0.00,WeatherDisplay:10.37,2013-05-20 16:45:00,
2013-05-20 13:00:00,77.5,64.8,29.99,East,80,1.0,6.0,65,0.00,BKN,,0.00,WeatherDisplay:10.37,2013-05-20 17:00:00,
2013-05-20 13:15:00,78.3,65.5,29.98,SE,127,2.0,6.0,65,0.00,BKN,,0.00,WeatherDisplay:10.37,2013-05-20 17:15:00,
2013-05-20 13:30:00,79.1,63.0,29.98,ENE,74,2.0,5.0,58,0.00,BKN,,0.00,WeatherDisplay:10.37,2013-05-20 17:30:00,
2013-05-20 13:45:00,79.5,63.9,29.97,East,88,2.0,6.0,59,0.00,CLR,,0.00,WeatherDisplay:10.37,2013-05-20 17:45:00,
2013-05-20 14:00:00,79.3,64.2,29.97,East,85,2.0,5.0,60,0.00,CLR,,0.00,WeatherDisplay:10.37,2013-05-20 18:00:00,
2013-05-20 17:00:00,79.0,69.6,29.92,NE,56,0.0,2.0,73,0.00,CLR,,0.00,WeatherDisplay:10.37,2013-05-20 21:00:00,
2013-05-20 17:15:00,80.7,67.8,29.93,NNE,21,1.0,7.0,65,0.00,CLR,,0.00,WeatherDisplay:10.37,2013-05-20 21:15:00,
2013-05-20 17:30:00,80.5,68.1,29.94,WNW,292,3.0,13.0,66,0.00,CLR,,0.00,WeatherDisplay:10.37,2013-05-20 21:30:00,
2013-05-20 17:45:00,78.3,67.3,29.94,West,281,5.0,13.0,69,0.00,SCT,,0.00,WeatherDisplay:10.37,2013-05-20 21:45:00,
2013-05-20 18:00:00,76.2,65.7,29.95,West,269,2.0,16.0,70,0.00,SCT,,0.00,WeatherDisplay:10.37,2013-05-20 22:00:00,
2013-05-20 18:15:00,75.0,65.0,29.94,West,279,1.0,16.0,71,0.00,SCT,,0.00,WeatherDisplay:10.37,2013-05-20 22:15:00,
2013-05-20 18:30:00,74.0,64.4,29.94,West,276,8.0,16.0,72,0.00,SCT,,0.00,WeatherDisplay:10.37,2013-05-20 22:30:00,
2013-05-20 18:45:00,73.2,64.4,29.94,WNW,298,2.0,17.0,74,0.00,CLR,,0.00,WeatherDisplay:10.37,2013-05-20 22:45:00,
2013-05-20 19:00:00,72.5,64.1,29.94,West,271,7.0,16.0,75,0.00,CLR,,0.00,WeatherDisplay:10.37,2013-05-20 23:00:00,
2013-05-20 19:15:00,72.1,64.1,29.94,WNW,299,2.0,12.0,76,0.00,CLR,,0.00,WeatherDisplay:10.37,2013-05-20 23:15:00,
2013-05-20 19:30:00,71.9,63.5,29.93,WNW,289,1.0,12.0,75,0.00,CLR,,0.00,WeatherDisplay:10.37,2013-05-20 23:30:00,
2013-05-20 19:45:00,71.6,63.3,29.93,WNW,286,0.0,5.0,75,0.00,CLR,,0.00,WeatherDisplay:10.37,2013-05-20 23:45:00,
2013-05-20 20:00:00,71.5,64.3,29.93,WNW,286,0.0,1.0,78,0.00,CLR,,0.00,WeatherDisplay:10.37,2013-05-21 00:00:00,
2013-05-20 20:15:00,70.2,63.8,29.93,WNW,286,0.0,3.0,80,0.00,CLR,,0.00,WeatherDisplay:10.37,2013-05-21 00:15:00,
2013-05-20 20:30:00,68.9,63.2,29.93,WNW,286,0.0,2.0,82,0.00,CLR,,0.00,WeatherDisplay:10.37,2013-05-21 00:30:00,
2013-05-20 20:45:00,67.6,62.3,29.93,WNW,286,0.0,1.0,83,0.00,CLR,,0.00,WeatherDisplay:10.37,2013-05-21 00:45:00,
2013-05-20 21:00:00,66.5,61.8,29.94,WNW,286,0.0,2.0,85,0.00,CLR,,0.00,WeatherDisplay:10.37,2013-05-21 01:00:00,
2013-05-20 21:15:00,65.7,61.1,29.94,WNW,286,0.0,1.0,85,0.00,CLR,,0.00,WeatherDisplay:10.37,2013-05-21 01:15:00,
2013-05-20 21:30:00,65.1,60.8,29.94,WNW,286,0.0,0.0,86,0.00,CLR,,0.00,WeatherDisplay:10.37,2013-05-21 01:30:00,
2013-05-20 21:45:00,64.6,60.3,29.94,WNW,286,0.0,0.0,86,0.00,CLR,,0.00,WeatherDisplay:10.37,2013-05-21 01:45:00,
2013-05-20 22:00:00,64.1,59.8,29.95,WNW,286,0.0,0.0,86,0.00,CLR,,0.00,WeatherDisplay:10.37,2013-05-21 02:00:00,
2013-05-20 22:15:00,63.6,59.3,29.96,WNW,286,0.0,0.0,86,0.00,CLR,,0.00,WeatherDisplay:10.37,2013-05-21 02:15:00,
2013-05-20 22:30:00,63.2,58.9,29.96,WNW,286,0.0,0.0,86,0.00,CLR,,0.00,WeatherDisplay:10.37,2013-05-21 02:30:00,
2013-05-20 22:45:00,63.0,58.7,29.96,WNW,286,0.0,0.0,86,0.00,CLR,,0.00,WeatherDisplay:10.37,2013-05-21 02:45:00,
2013-05-20 23:00:00,62.7,58.8,29.97,WNW,286,0.0,0.0,87,0.00,CLR,,0.00,WeatherDisplay:10.37,2013-05-21 03:00:00,
2013-05-20 23:15:00,62.5,58.6,29.96,WNW,286,0.0,0.0,87,0.00,CLR,,0.00,WeatherDisplay:10.37,2013-05-21 03:15:00,
2013-05-20 23:30:00,62.2,58.3,29.96,WNW,286,0.0,0.0,87,0.00,CLR,,0.00,WeatherDisplay:10.37,2013-05-21 03:30:00,
2013-05-20 23:45:00,61.8,57.9,29.96,WNW,286,0.0,0.0,87,0.00,CLR,,0.00,WeatherDisplay:10.37,2013-05-21 03:45:00,